Flag for U.S.A. Weather past 2 weeks in French Lick, Indiana, U.S.A.

Now
30 °F

Low clouds.


Feels Like: 25 °F
Forecast: 25 / 37 °F
Wind: 5 mph from Southeast

Location: Huntingburg Airport

Current Time: Jan 27, 2015 at 4:18:51 AM

Latest Report: Jan 27, 2015 at 3:55 AM


Visibility: 3 mi

Pressure: 29.92 "Hg

Humidity: 86%

Dew point: 27 °F

Location of French LickLocation

Historic Weather in French Lick — Graph

°F

French Lick temperature yesterday

Maximum temperature yesterday: 32 °F (at 12:15 AM)
Minimum temperature yesterday: 27 °F (at 3:55 AM)
Average temperature yesterday: 29 °F

Past Weeks' High & Low Weather Summary

 TemperatureHumidityPressure
High55 °F (Jan 20, 2:55 PM)93% (Jan 12, 5:55 AM)30.57 "Hg (Jan 12, 5:55 AM)
Low19 °F (Jan 14, 5:35 AM)41% (Jan 19, 2:35 PM)29.61 "Hg (Jan 25, 1:35 PM)
Average34 °F73%30.11 "Hg
* Reported Jan 12 3:15 AM — Jan 27 3:15 AM, French Lick, Weather by CustomWeather, © 2014

Note: Actual official high and low records may vary slightly from our data, if they occured in-between our weather recording intervals... More about our weather records

Advertising

French Lick weather history for previous 24 hours

 ConditionsComfort  
Time TempWeatherWind HumidityBarometerVisibility
3:15 AM
Jan 27
30 °FLow clouds.3 mph86%29.92 "Hg3 mi
2:55 AM28 °FLow clouds.5 mph93%29.92 "Hg3 mi
2:35 AM28 °FLow clouds.3 mph93%29.92 "Hg5 mi
2:15 AM28 °FLow clouds.5 mph93%29.91 "Hg5 mi
1:55 AM28 °FLow clouds.5 mph93%29.91 "Hg5 mi
1:35 AM28 °FLow clouds.5 mph93%29.91 "Hg3 mi
1:15 AM28 °FLow clouds.3 mph93%29.92 "Hg3 mi
12:55 AM28 °FLow clouds.5 mph86%29.92 "Hg3 mi
12:35 AM28 °FLow clouds.5 mph86%29.93 "Hg2 mi
12:15 AM28 °FLow clouds.5 mph86%29.94 "Hg3 mi
11:55 PM
Jan 26
28 °FLow clouds.3 mph86%29.94 "Hg3 mi
11:35 PM28 °FMostly cloudy.5 mph86%29.94 "Hg3 mi
11:15 PM28 °FMostly cloudy.5 mph86%29.95 "Hg3 mi
10:55 PM28 °FMostly cloudy.3 mph86%29.95 "Hg4 mi
10:35 PM28 °FMostly cloudy.5 mph86%29.95 "Hg5 mi
9:55 PM28 °FPartly cloudy.3 mph86%29.96 "Hg7 mi
9:35 PM28 °FMostly cloudy.3 mph86%29.97 "Hg8 mi
9:15 PM28 °FPassing clouds.3 mph86%29.97 "Hg8 mi
8:55 PM27 °FPassing clouds.3 mph93%29.97 "Hg8 mi
8:35 PM28 °FPassing clouds.5 mph86%29.97 "Hg5 mi
8:15 PM28 °FPassing clouds.3 mph86%29.97 "Hg4 mi
7:55 PM28 °FClear.3 mph86%29.98 "Hg4 mi
7:35 PM28 °FPassing clouds.3 mph86%29.98 "Hg3 mi
7:15 PM28 °FMostly cloudy.5 mph86%29.98 "Hg3 mi
6:55 PM28 °FMostly cloudy.5 mph86%29.98 "Hg4 mi
6:35 PM28 °FOvercast.3 mph86%29.97 "Hg5 mi
6:15 PM28 °FOvercast.3 mph86%29.96 "Hg1 mi
5:55 PM28 °FMostly cloudy.6 mph80%29.95 "Hg2 mi
5:35 PM28 °FBroken clouds.6 mph80%29.94 "Hg7 mi
5:15 PM28 °FBroken clouds.7 mph74%29.94 "Hg3 mi
4:55 PM28 °FOvercast.9 mph80%29.96 "Hg7 mi
4:35 PM28 °FMostly cloudy.9 mph86%29.96 "Hg8 mi
4:15 PM28 °FMostly cloudy.7 mph80%29.95 "Hg5 mi
3:55 PM30 °FOvercast.12 mph80%29.96 "Hg10 mi
3:35 PM30 °FOvercast.12 mph80%29.96 "Hg10 mi
3:15 PM30 °FOvercast.14 mph80%29.96 "Hg10 mi
2:55 PM30 °FOvercast.10 mph80%29.94 "Hg10 mi
2:35 PM30 °FOvercast.10 mph80%29.94 "Hg10 mi
2:15 PM30 °FOvercast.13 mph80%29.95 "Hg10 mi
1:55 PM30 °FOvercast.9 mph75%29.95 "Hg10 mi
1:35 PM30 °FOvercast.9 mph75%29.97 "Hg10 mi
1:15 PM30 °FOvercast.9 mph75%29.98 "Hg10 mi
12:55 PM30 °FOvercast.12 mph75%29.99 "Hg10 mi
12:35 PM30 °FOvercast.10 mph69%29.99 "Hg10 mi
11:55 AM30 °FOvercast.9 mph75%30.02 "Hg10 mi
11:35 AM30 °FOvercast.9 mph75%30.02 "Hg10 mi
11:15 AM30 °FOvercast.10 mph80%30.02 "Hg10 mi
10:55 AM30 °FMostly cloudy.9 mph80%30.01 "Hg10 mi
10:35 AM30 °FMostly cloudy.7 mph75%30.00 "Hg10 mi
10:15 AM30 °FMore clouds than sun.6 mph75%30.00 "Hg10 mi
9:55 AM28 °FMostly cloudy.9 mph80%30.00 "Hg10 mi
9:35 AM28 °FOvercast.8 mph80%29.99 "Hg10 mi
9:15 AM28 °FOvercast.7 mph74%30.00 "Hg10 mi
8:55 AM28 °FOvercast.6 mph74%29.98 "Hg10 mi
8:35 AM28 °FOvercast.9 mph74%29.98 "Hg10 mi
8:15 AM28 °FOvercast.8 mph74%29.97 "Hg10 mi
7:55 AM27 °FOvercast.8 mph74%29.97 "Hg10 mi
7:35 AM27 °FOvercast.12 mph80%29.97 "Hg10 mi
7:15 AM27 °FOvercast.10 mph74%29.96 "Hg10 mi
6:55 AM28 °FOvercast.12 mph74%29.96 "Hg10 mi
6:35 AM27 °FOvercast.8 mph80%29.94 "Hg10 mi
5:55 AM27 °FOvercast.12 mph74%29.93 "Hg10 mi
5:35 AM27 °FOvercast.13 mph80%29.93 "Hg10 mi
4:55 AM27 °FOvercast.15 mph74%29.92 "Hg10 mi
4:35 AM28 °FOvercast.14 mph74%29.91 "Hg10 mi
4:15 AM27 °FOvercast.12 mph80%29.91 "Hg10 mi
Weather by CustomWeather, © 2014

See weather overviewHow to use our weather pages